HYPSO-1

导读

HYPSO-1卫星于2022年1月13日发射,发射国家标注为NO,推测为挪威研制或发射任务相关。作为一颗高光谱观测卫星,它主要依托高光谱成像技术,开展大气成分探测、海洋生态监测以及陆地资源精细分析等科研任务,助力全球气候变化研究、生态环境动态评估,为地球系统科学研究提供多维度、高精度的观测数据支撑,服务于环保、科研等多领域应用需求。

Basic Information
目录编号:
51053
目录名称:
HYPSO-1
国际标识:
2022-002BX
轨道中心:
EARTH
卫星名称:
HYPSO-1
卫星全名:
--
卫星状态:
在轨 (已飞行1703 天)
发射日期:
2022-01-13 UTC
国别 :
挪威 (NO)
星等 :
--
This satellite is enrolled in the Space Conjunction Data Service (SCDS) and the current flight risk assessment level is: No High Risk
Orbit Information
数据来源 国际轨道数据
星历时间: 2026-09-12T14:21:35+0800
7小时前
查看轨道信息
半长轴: 6689.97km
偏心率: 0.0003486
轨道倾角: 97.272°
近地点辐角 266.889°
升交点赤经 340.814°
平近点角 93.198°
近地点: 309.5km
远地点: 314.166km
周期: 90.760分钟
每日圈数: 15.865969
Detailed Information
使用方式:
暂无
2D Orbit Map
3D Orbit Map
Orbit Altitude Analysis Chart
Orbit Inclination Analysis Chart
Orbit Comprehensive Analysis Chart
View Comprehensive Chart
Conjunction Data List
Event ID Objects TCA Miss Dist (km) Collision Risk Probability Collision Risk Index (CRI) Action
CDM_260905-230505-105305-389123
HYPSO-1 (51053)
2026-09-05T
23:05:50+0000
0.956 km
远距离
3.071368E-5 中风险 0.65
CDM_260913-120605-105306-175621
HYPSO-1 (51053)
OBJECT X (61756)
2026-09-13T
12:06:40+0000
2.954 km
极远距离
1.376233E-6 低风险 0.38
Miss Distance Evolution Trend with All Objects
Collision Probability Evolution Trend with All Objects